Weather History for Silver Bay, MN

Change the Weather History Date:

Monday, August 5, 2013

  Actual Average Record
Temperature  
Mean Temperature 53 °F -  
Max Temperature 60 °F 72 °F 87 °F (2011)
Min Temperature 46 °F 46 °F 8 °F (1997)
Degree Days  
Heating Degree Days 12    
Growing Degree Days 3 (Base 50)    
Moisture  
Dew Point 52 °F    
Average Humidity 88    
Maximum Humidity 94    
Minimum Humidity 82    
Precipitation  
Precipitation 0.18 in - - ()
Sea Level Pressure  
Sea Level Pressure 29.87 in    
Wind  
Wind Speed 0 mph (North)    
Max Wind Speed 0 mph    
Max Gust Speed -    
Visibility 7 miles    
Events Rain    
Averages and records for this station are not official NWS values.
T = Trace of Precipitation, MM = Missing Value Source: NWS Daily Summary

Daily Weather History Graph

Daily Weather History Graph

Search for Another Location

Airport:

Trip Planner

Search our weather history database for the weather conditions in past years. The results will help you decide how hot, cold, wet, or windy it might be!

Date:

Astronomy

Aug. 05, 2013 Rise Set
Actual Time 5:49 AM CDT 8:32 PM CDT
Civil Twilight 5:14 AM CDT 9:07 PM CDT
Nautical Twilight 4:30 AM CDT 9:51 PM CDT
Astronomical Twilight 3:37 AM CDT 10:43 PM CDT
Moon 4:46 AM CDT (8/5) 7:30 PM CDT (8/5)
Length of Visible Light 15h 53m
Length of Day
14h 43m
Waning Crescent, 1% of the Moon is Illuminated
Aug 5
Waning Crescent
Aug 6
New
Aug 14
First Quarter
Aug 20
Full
Aug 28
Last Quarter

Hourly Weather History & Observations

Time (CDT) Temp. Dew Point Humidity Pressure Visibility Wind Dir Wind Speed Gust Speed Precip Events Conditions
12:13 AM 48.2 °F 44.6 °F 87% 30.02 in 10.0 mi Calm Calm - N/A   Clear
12:33 AM 50.0 °F 44.6 °F 82% 30.02 in 10.0 mi Calm Calm - N/A   Clear
12:53 AM 46.4 °F 44.6 °F 93% 30.01 in 10.0 mi Calm Calm - N/A   Clear
1:13 AM 46.4 °F 44.6 °F 93% 29.99 in 10.0 mi Calm Calm - N/A   Clear
1:33 AM 46.4 °F 44.6 °F 93% 29.99 in 10.0 mi Calm Calm - N/A   Clear
1:53 AM 48.2 °F 44.6 °F 87% 29.99 in 10.0 mi Calm Calm - N/A   Scattered Clouds
2:13 AM 48.2 °F 44.6 °F 87% 30.00 in 10.0 mi Calm Calm - N/A   Mostly Cloudy
2:33 AM 48.2 °F 44.6 °F 87% 29.99 in 10.0 mi Calm Calm - N/A   Mostly Cloudy
2:53 AM 50.0 °F 46.4 °F 87% 29.98 in 10.0 mi Calm Calm - N/A   Overcast
3:13 AM 50.0 °F 46.4 °F 87% 29.97 in 10.0 mi Calm Calm - N/A   Overcast
3:33 AM 51.8 °F 46.4 °F 82% 29.96 in 10.0 mi Calm Calm - N/A   Overcast
3:53 AM 51.8 °F 46.4 °F 82% 29.98 in 10.0 mi Calm Calm - N/A Rain Light Rain
4:13 AM 51.8 °F 48.2 °F 88% 29.97 in 10.0 mi Calm Calm - N/A Rain Rain
4:33 AM 51.8 °F 48.2 °F 88% 29.96 in 10.0 mi Calm Calm - N/A Rain Light Rain
4:53 AM 51.8 °F 48.2 °F 88% 29.95 in 10.0 mi Calm Calm - 0.01 in Rain Light Rain
5:13 AM 51.8 °F 48.2 °F 88% 29.94 in 10.0 mi Calm Calm - 0.04 in Rain Light Rain
5:33 AM 51.8 °F 48.2 °F 88% 29.92 in 10.0 mi Calm Calm - 0.05 in Rain Light Rain
5:53 AM 51.8 °F 48.2 °F 88% 29.93 in 7.0 mi Calm Calm - N/A Rain Light Rain
6:13 AM 51.8 °F 48.2 °F 88% 29.93 in 10.0 mi Calm Calm - 0.01 in Rain Light Rain
6:33 AM 51.8 °F 48.2 °F 88% 29.93 in 7.0 mi Calm Calm - 0.04 in Rain Rain
6:53 AM 53.6 °F 50.0 °F 88% 29.92 in 7.0 mi Calm Calm - 0.01 in Rain Rain
7:13 AM 53.6 °F 50.0 °F 88% 29.91 in 5.0 mi Calm Calm - 0.06 in Rain Light Rain
7:33 AM 53.6 °F 51.8 °F 94% 29.91 in 7.0 mi Calm Calm - 0.07 in Rain Light Rain
7:53 AM 53.6 °F 51.8 °F 94% 29.88 in 5.0 mi Calm Calm - 0.01 in Rain Light Rain
8:13 AM 55.4 °F 51.8 °F 88% 29.89 in 10.0 mi Calm Calm - 0.01 in   Light Drizzle
8:33 AM 55.4 °F 51.8 °F 88% 29.89 in 10.0 mi Calm Calm - 0.01 in   Mostly Cloudy
8:53 AM 55.4 °F 51.8 °F 88% 29.89 in 10.0 mi Calm Calm - N/A   Mostly Cloudy
9:13 AM 55.4 °F 51.8 °F 88% 29.89 in 10.0 mi Calm Calm - N/A   Overcast
9:33 AM 57.2 °F 53.6 °F 88% 29.89 in 10.0 mi Calm Calm - N/A   Overcast
9:53 AM 57.2 °F 53.6 °F 88% 29.88 in 10.0 mi Calm Calm - N/A   Overcast
10:13 AM 57.2 °F 53.6 °F 88% 29.87 in 10.0 mi Calm Calm - N/A   Overcast
10:33 AM 57.2 °F 53.6 °F 88% 29.87 in 10.0 mi Calm Calm - N/A   Overcast
10:53 AM 57.2 °F 53.6 °F 88% 29.87 in 10.0 mi Calm Calm - N/A   Overcast
11:13 AM 57.2 °F 53.6 °F 88% 29.86 in 10.0 mi Calm Calm - N/A   Overcast
11:33 AM 57.2 °F 53.6 °F 88% 29.86 in 10.0 mi Calm Calm - N/A   Overcast
11:53 AM 57.2 °F 53.6 °F 88% 29.86 in 7.0 mi Calm Calm - N/A   Overcast
12:13 PM 57.2 °F 53.6 °F 88% 29.86 in 10.0 mi Calm Calm - N/A   Overcast
12:33 PM 57.2 °F 53.6 °F 88% 29.85 in 5.0 mi Calm Calm - N/A   Overcast
12:53 PM 57.2 °F 53.6 °F 88% 29.85 in 3.0 mi Calm Calm - N/A   Overcast
1:13 PM 57.2 °F 53.6 °F 88% 29.85 in 2.5 mi Calm Calm - N/A   Overcast
1:33 PM 57.2 °F 53.6 °F 88% 29.85 in 2.5 mi Calm Calm - N/A   Overcast
1:53 PM 57.2 °F 53.6 °F 88% 29.85 in 2.5 mi Calm Calm - N/A   Overcast
2:13 PM 57.2 °F 53.6 °F 88% 29.85 in 2.0 mi Calm Calm - N/A   Overcast
2:33 PM 57.2 °F 55.4 °F 94% 29.84 in 2.5 mi Calm Calm - N/A   Overcast
2:53 PM 59.0 °F 55.4 °F 88% 29.84 in 3.0 mi Calm Calm - N/A   Mostly Cloudy
3:13 PM 59.0 °F 55.4 °F 88% 29.84 in 5.0 mi Calm Calm - N/A   Overcast
3:33 PM 60.8 °F 55.4 °F 82% 29.83 in 7.0 mi Calm Calm - N/A   Overcast
3:53 PM 59.0 °F 55.4 °F 88% 29.82 in 7.0 mi Calm Calm - N/A   Overcast
4:13 PM 60.8 °F 55.4 °F 82% 29.82 in 7.0 mi Calm Calm - N/A   Overcast
4:33 PM 60.8 °F 55.4 °F 82% 29.82 in 7.0 mi Calm Calm - N/A   Overcast
4:53 PM 60.8 °F 55.4 °F 82% 29.82 in 7.0 mi Calm Calm - N/A   Overcast
5:13 PM 59.0 °F 53.6 °F 82% 29.82 in 5.0 mi Calm Calm - N/A   Haze
5:33 PM 59.0 °F 55.4 °F 88% 29.81 in 5.0 mi Calm Calm - N/A   Overcast
5:53 PM 60.8 °F 55.4 °F 82% 29.80 in 5.0 mi Calm Calm - N/A   Haze
6:13 PM 60.8 °F 55.4 °F 82% 29.80 in 5.0 mi Calm Calm - N/A   Haze
6:33 PM 60.8 °F 55.4 °F 82% 29.80 in 5.0 mi Calm Calm - N/A   Haze
6:53 PM 59.0 °F 55.4 °F 88% 29.79 in 7.0 mi Calm Calm - N/A   Overcast
7:13 PM 60.8 °F 55.4 °F 82% 29.79 in 7.0 mi Calm Calm - N/A   Overcast
7:33 PM 60.8 °F 55.4 °F 82% 29.78 in 7.0 mi Calm Calm - N/A   Overcast
7:53 PM 59.0 °F 55.4 °F 88% 29.79 in 7.0 mi Calm Calm - N/A   Mostly Cloudy
8:13 PM 59.0 °F 55.4 °F 88% 29.79 in 7.0 mi Calm Calm - N/A   Mostly Cloudy
8:33 PM 57.2 °F 55.4 °F 94% 29.79 in 5.0 mi Calm Calm - N/A   Mostly Cloudy
8:53 PM 57.2 °F 55.4 °F 94% 29.79 in 5.0 mi Calm Calm - N/A   Mostly Cloudy
9:13 PM 57.2 °F 53.6 °F 88% 29.79 in 5.0 mi Calm Calm - N/A   Overcast
9:33 PM 57.2 °F 53.6 °F 88% 29.79 in 4.0 mi Calm Calm - N/A   Scattered Clouds
9:53 PM 57.2 °F 53.6 °F 88% 29.79 in 4.0 mi Calm Calm - N/A   Scattered Clouds
10:13 PM 57.2 °F 53.6 °F 88% 29.80 in 4.0 mi Calm Calm - N/A   Scattered Clouds
10:33 PM 57.2 °F 53.6 °F 88% 29.80 in 4.0 mi Calm Calm - N/A   Scattered Clouds
10:53 PM 55.4 °F 53.6 °F 94% 29.79 in 3.0 mi Calm Calm - N/A   Scattered Clouds
11:13 PM 55.4 °F 53.6 °F 94% 29.80 in 4.0 mi Calm Calm - N/A   Clear
11:33 PM 55.4 °F 51.8 °F 88% 29.79 in 4.0 mi Calm Calm - N/A   Clear
11:53 PM 55.4 °F 51.8 °F 88% 29.79 in 1.5 mi Calm Calm - N/A   Mist